RH
3 5 12 18 15 22 22 25 35 27 47 63 37 20 12 16 19 60 67 62 55 49 48 54 59 54 47 41 26 17 27 35 42 52 45 33 46 50 41 23 15 15 22 30 32
4 4 5 19 27 27 27 38 54 58 62 62 75 85 89 94 74 80 75 71 59 53 49 53 60 63 61 58 54 51 39 42 38 44 50 46 27 56 54 37 33 19 14 22 25
4 4 4 8 26 33 38 54 68 58 79 81 93 90 95 95 98 99 90 80 73 68 58 50 47 47 48 58 60 57 55 48 49 48 61 60 23 39 68 51 42 37 14 15 20
6 6 4 4 12 28 35 37 47 75 89 85 72 89 81 96 90 90 86 81 74 69 68 68 65 62 60 50 46 39 40 41 39 42 46 54 45 28 47 65 51 46 34 13 14
7 6 6 4 6 12 25 31 20 7 14 85 73 73 95 58 92 72 76 80 79 83 54 55 52 57 47 55 56 56 50 47 47 44 50 47 50 48 46 69 62 51 44 36 12
8 7 7 7 5 5 6 10 6 6 6 11 11 6 26 19 24 35 12 6 3 2 2 2 2 2 2 3 6 10 16 23 30 33 39 49 49 54 55 60 75 58 47 44 39
9 8 8 8 6 5 5 6 6 6 5 6 6 4 4 4 3 3 3 3 3 3 3 2 2 2 2 2 2 2 2 2 3 7 10 16 29 46 45 52 63 72 50 42 47
10 10 9 8 9 6 6 8 8 6 6 7 7 5 4 4 4 3 3 3 2 2 2 2 2 1 1 1 1 1 1 1 1 2 3 4 7 10 31 42 49 58 70 44 45
11 12 11 9 8 8 7 8 9 6 6 6 7 5 4 4 4 3 3 2 2 2 2 2 2 2 1 1 1 1 1 1 1 1 1 2 3 3 4 10 38 46 60 69 55
12 13 13 10 9 9 10 10 10 6 6 6 8 5 4 4 4 3 3 4 3 3 3 2 2 2 1 1 1 1 1 1 1 1 1 1 1 2 2 3 6 36 46 61 63
11 13 14 12 10 10 10 10 11 10 6 7 8 5 5 5 4 4 4 4 4 4 3 3 3 2 1 1 1 1 1 1 1 1 1 1 1 1 1 2 2 4 34 46 62
11 14 15 13 12 10 10 10 10 9 8 8 7 6 6 6 5 5 5 5 5 4 4 4 3 2 1 1 1 1 1 2 2 1 1 1 1 1 1 1 1 1 4 32 45
14 13 15 17 13 12 10 10 10 9 9 8 8 7 7 6 6 6 7 6 6 6 6 4 3 2 2 2 2 4 11 14 16 14 9 2 1 1 1 1 1 1 1 5 36
14 12 15 16 17 14 13 11 10 10 8 8 9 9 8 8 8 8 8 8 8 8 6 5 3 2 2 2 4 17 22 24 34 34 33 17 8 9 11 2 1 1 1 1 5
15 14 12 16 18 16 15 13 12 10 10 11 11 11 10 10 10 10 10 10 10 9 7 5 4 3 3 2 9 23 37 53 57 62 25 47 44 45 73 58 6 1 1 1 1
16 16 15 16 17 20 18 18 14 14 14 14 14 13 13 13 14 13 13 12 11 10 8 6 4 4 3 3 11 27 39 58 68 81 98 100 63 100 98 100 83 16 1 1 1
19 18 19 18 18 21 20 21 20 19 19 18 17 16 16 17 16 17 16 14 12 11 8 7 5 4 3 4 16 34 42 71 97 96 99 96 99 100 100 100 100 92 52 2 1
22 21 23 21 22 23 22 23 21 21 22 21 20 19 18 19 18 18 19 16 14 12 10 8 6 5 4 4 12 32 43 60 96 67 97 100 100 93 100 100 96 98 82 53 8
24 28 29 30 28 28 26 24 22 22 21 23 23 21 21 20 18 18 21 18 17 15 12 9 7 6 4 4 9 30 35 40 63 94 87 100 100 100 99 99 99 74 62 54 42
24 28 29 31 34 32 28 25 23 21 20 20 23 22 21 20 18 19 22 20 20 18 14 10 8 7 5 5 4 18 32 38 57 71 94 96 94 97 100 95 100 100 98 100 99
25 26 27 26 26 27 24 24 26 22 19 20 22 22 22 19 18 18 22 22 22 22 16 12 10 9 6 5 4 6 23 32 39 50 57 90 89 92 100 100 99 99 100 71 79
15 26 27 27 22 21 17 23 29 21 18 19 23 23 23 22 22 18 21 23 24 25 21 15 12 11 9 6 6 5 6 14 29 37 44 53 70 65 88 79 100 100 98 98 100
22 18 30 26 26 20 16 22 28 27 20 16 22 25 25 24 24 21 19 19 24 25 28 20 14 13 12 10 8 8 6 5 7 18 30 37 40 56 57 57 66 71 89 94 90
68 22 18 26 26 29 23 18 25 27 25 17 17 25 26 24 24 23 21 19 20 23 29 30 20 15 15 15 11 9 8 6 5 6 7 15 30 36 38 42 45 44 52 84 94
48 61 22 18 29 33 32 25 19 19 22 20 16 18 24 24 24 22 22 21 21 21 25 34 33 21 16 16 16 11 11 9 8 7 6 6 6 9 19 30 36 40 40 44 66
20 38 58 22 33 33 35 34 31 23 16 14 15 15 16 18 20 21 21 21 22 20 20 28 37 37 25 21 20 19 15 14 10 10 9 8 7 6 5 5 6 15 21 32 35
10 21 51 55 23 33 32 37 37 36 28 20 17 16 20 20 21 20 20 21 20 20 21 23 32 40 40 32 25 23 21 18 14 12 13 12 11 9 7 7 6 4 4 6 10
Wind_Speed
3 4 7 9 10 11 14 15 18 18 17 14 16 23 27 30 34 36 38 38 39 39 39 36 38 39 36 34 33 39 45 44 44 43 41 39 43 39 38 39 36 37 39 39 37
2 3 5 7 9 9 11 12 15 15 15 15 15 15 17 23 27 31 33 33 33 32 34 35 35 36 39 40 41 41 40 47 47 45 43 44 41 48 45 40 36 34 39 39 38
5 6 6 5 5 9 9 9 13 14 14 12 11 15 22 23 24 25 27 29 29 29 28 29 31 34 36 40 41 43 46 49 51 52 46 45 41 42 49 50 40 36 38 41 39
8 8 7 6 4 6 5 5 10 7 16 11 15 20 11 17 19 23 22 25 27 27 28 29 30 30 33 35 36 39 43 45 48 48 47 45 48 40 38 47 53 44 41 39 40
11 10 9 6 4 4 5 4 3 4 8 9 5 1 14 9 13 14 18 19 21 21 22 24 26 27 30 33 35 39 41 43 46 45 50 49 48 48 41 45 51 54 48 41 42
12 11 9 8 6 4 4 5 3 2 5 4 4 6 6 8 8 10 11 12 13 14 16 19 20 24 26 30 34 37 41 45 48 49 48 46 51 48 47 52 54 54 58 50 43
12 9 8 9 9 7 6 5 5 4 3 3 3 4 4 4 5 7 7 8 11 13 15 18 21 24 27 31 34 38 42 45 50 52 52 51 48 48 56 58 59 57 56 57 51
12 10 10 8 10 12 11 9 9 8 7 5 3 2 3 5 6 7 8 9 10 12 15 18 21 24 28 32 35 40 45 49 54 56 58 56 55 55 59 58 59 57 63 56 57
13 11 11 11 11 12 16 15 12 12 10 7 7 6 6 7 7 7 7 8 9 13 17 21 25 29 31 34 38 43 47 53 57 62 63 65 63 65 63 59 56 61 60 67 56
16 13 12 12 11 12 15 18 17 16 15 11 9 8 8 8 8 7 7 8 13 16 19 22 25 29 32 35 40 45 49 53 59 65 68 69 72 70 68 65 61 60 64 64 67
20 16 13 12 11 11 12 16 17 19 18 14 11 10 9 9 8 7 8 10 14 17 20 23 27 30 33 38 42 45 51 56 61 66 69 74 78 79 76 71 66 63 63 68 68
22 20 16 15 13 12 12 14 16 17 16 15 12 11 10 11 10 10 11 13 16 19 23 26 29 31 35 42 46 46 45 42 45 55 66 75 81 85 83 79 74 69 69 70 71
23 23 19 17 16 14 12 13 16 17 16 14 12 11 12 13 11 11 12 15 16 19 23 26 29 33 38 43 42 38 37 38 40 36 45 64 73 80 87 87 83 78 79 71 70
23 26 24 20 19 18 15 13 13 14 15 13 13 13 12 13 11 12 13 14 16 20 23 25 31 34 40 45 39 32 36 30 31 34 31 40 41 49 55 81 88 89 80 75 74
23 26 27 24 22 21 19 17 14 13 13 14 14 14 13 13 12 13 15 15 15 19 21 24 30 35 41 42 32 29 23 27 27 19 14 8 12 18 23 38 70 83 83 80 77
26 26 27 27 25 24 23 21 20 18 16 15 14 14 13 13 13 13 14 15 16 17 20 24 28 34 39 40 29 23 22 28 28 19 9 4 4 9 15 17 30 55 80 81 79
28 27 28 28 28 27 26 23 22 22 20 19 17 14 12 13 12 10 13 15 16 18 20 23 27 32 37 36 24 21 22 25 24 15 13 8 6 2 14 11 9 20 31 77 78
32 30 29 30 29 29 28 26 24 22 22 20 17 15 13 12 13 12 11 12 14 16 18 22 26 30 35 36 26 18 19 24 20 11 8 5 3 14 4 7 17 25 20 28 58
35 32 31 30 29 29 29 26 23 22 20 19 19 16 13 12 14 13 11 11 14 15 16 19 22 27 32 35 26 17 18 19 20 16 3 9 6 3 11 5 13 21 18 19 25
40 37 35 33 31 31 29 25 23 21 18 16 16 15 12 13 13 12 12 11 12 14 15 17 20 24 28 35 33 17 14 15 17 20 11 15 16 9 4 15 7 12 15 20 16
44 42 38 36 35 34 31 27 26 24 20 17 16 15 12 12 12 13 13 12 12 14 14 15 18 20 22 26 28 23 13 11 12 14 15 9 11 9 19 12 15 9 13 18 24
48 47 44 41 39 36 32 31 29 26 23 20 18 17 14 11 12 12 12 14 14 14 13 14 16 19 21 21 24 23 17 11 8 9 11 13 10 11 11 15 12 12 16 17 24
49 51 48 47 44 37 34 34 33 31 27 24 22 19 17 14 12 12 12 13 14 14 13 12 14 15 18 20 21 24 26 21 12 7 7 10 13 10 11 14 15 16 18 17 15
52 52 53 52 47 41 37 36 35 33 31 27 25 23 20 18 15 13 13 13 14 14 14 12 12 13 15 17 18 19 20 21 21 16 10 8 10 13 14 15 17 18 19 23 17
54 54 53 54 50 43 40 39 37 35 33 30 27 27 25 22 19 17 15 14 14 14 15 13 11 11 12 13 15 14 16 16 17 18 17 16 11 13 19 21 21 23 24 26 28
56 55 54 54 53 51 48 44 38 34 33 32 31 30 26 24 22 20 18 16 14 14 14 14 13 12 12 12 13 14 14 14 14 15 16 16 15 18 15 14 21 26 27 31 35
59 57 57 55 55 55 51 44 38 37 37 34 33 30 27 27 22 21 20 18 16 15 14 15 15 15 13 13 13 13 14 13 13 14 15 16 16 17 18 20 20 16 22 28 32
Wind_Direction
265 272 285 325 305 303 310 317 324 317 298 279 256 245 232 229 226 225 230 231 231 233 234 235 236 237 240 241 241 241 243 244 246 245 242 241 233 234 239 242 239 237 236 233 227
307 287 293 314 329 299 315 317 323 302 297 271 248 237 227 223 222 223 226 231 234 236 238 239 239 238 239 240 243 244 245 246 246 249 248 246 236 235 232 238 243 240 235 230 231
290 298 313 308 317 321 314 335 336 310 275 270 239 235 215 214 217 222 227 230 234 236 238 240 240 243 243 243 242 245 247 249 253 251 247 242 237 230 231 234 240 241 237 231 228
297 289 287 300 300 296 330 350 351 305 291 233 241 232 213 207 215 215 219 226 231 233 237 241 244 245 248 247 247 248 248 250 253 253 253 247 232 226 227 228 235 242 242 234 229
293 284 272 273 294 280 299 310 309 275 320 193 98 309 200 210 201 207 221 220 242 225 238 245 249 252 252 250 249 249 250 250 253 257 255 249 239 227 227 229 228 236 239 235 230
283 284 275 260 257 272 262 267 254 188 156 189 223 212 211 211 190 203 216 217 228 236 241 245 250 254 256 256 257 254 255 254 253 253 253 253 244 238 227 234 230 227 237 236 234
277 284 282 260 248 241 243 222 221 205 206 174 196 192 172 189 199 206 221 239 248 252 257 260 262 263 266 267 266 266 263 260 257 255 254 251 249 246 236 232 233 231 228 236 234
262 271 276 270 253 238 225 229 234 228 203 213 236 246 236 224 227 232 240 247 255 262 267 269 269 270 270 270 269 268 267 265 263 260 257 252 249 243 242 234 230 231 227 229 235
251 260 273 273 263 245 234 234 236 231 224 239 240 243 233 241 245 246 248 264 281 282 280 278 277 277 276 276 275 268 265 263 262 261 259 256 250 249 244 240 233 226 228 228 230
242 252 261 270 265 249 240 237 233 230 228 242 246 242 233 240 241 251 266 289 288 287 286 287 289 292 290 289 288 281 273 266 259 254 254 255 252 248 247 242 235 229 226 231 227
239 242 250 258 262 251 239 235 231 230 234 243 244 236 239 251 255 267 280 289 294 298 300 303 306 306 305 305 300 287 278 271 263 258 248 246 250 249 245 242 237 231 228 225 230
238 238 241 248 253 254 244 233 230 231 234 241 238 236 251 262 266 273 283 294 301 308 312 311 314 314 317 321 322 311 301 292 277 263 250 243 240 244 244 241 237 232 227 225 224
243 238 238 243 246 247 245 239 233 233 233 231 240 245 257 261 269 283 291 297 307 316 319 319 323 325 329 336 335 323 318 311 295 280 267 249 241 238 238 238 236 230 227 224 222
247 241 239 240 242 242 242 234 226 224 226 235 244 253 252 260 272 280 285 297 311 320 322 328 333 337 341 346 342 336 328 318 309 298 288 266 261 255 245 239 234 232 226 223 221
246 244 241 240 242 240 239 240 232 227 230 237 246 249 252 261 274 286 294 305 316 323 329 339 345 347 353 353 343 339 358 350 346 336 312 264 265 246 241 243 242 236 229 223 219
240 242 241 240 241 241 238 239 240 239 238 245 246 247 256 269 286 292 301 314 319 329 338 346 353 355 356 360 350 343 332 344 8 17 61 351 119 275 206 229 253 249 234 228 220
238 238 238 238 240 240 240 241 241 242 240 243 247 246 255 277 285 296 310 319 325 335 344 349 1 2 5 1 356 357 1 12 8 16 12 124 143 312 199 219 225 254 248 234 226
236 235 234 236 238 239 238 239 239 240 241 243 245 249 259 272 287 304 312 316 324 338 347 352 3 6 9 11 3 8 10 6 12 22 59 110 261 239 257 161 209 240 245 242 241
234 232 230 232 234 235 234 236 237 236 237 239 243 248 259 276 292 305 314 324 328 339 347 354 2 11 13 17 7 11 6 9 18 11 15 300 58 282 212 268 195 225 251 259 243
236 232 229 229 230 233 234 232 231 229 232 239 240 244 258 280 290 301 310 318 325 335 345 356 6 13 17 17 20 7 16 15 17 32 12 7 341 317 336 272 230 231 266 219 219
234 235 231 230 229 231 234 232 228 230 231 238 241 240 259 276 287 297 306 317 324 330 344 353 359 11 22 27 21 13 2 24 13 14 21 18 352 302 2 330 324 292 235 258 263
231 232 232 230 230 230 231 231 230 232 232 233 236 240 252 270 287 294 304 313 322 328 339 349 355 5 14 27 36 29 24 2 9 6 358 357 3 341 302 304 329 317 292 263 223
231 230 230 232 231 229 229 229 231 233 234 233 234 238 246 257 279 289 301 310 316 321 332 342 349 358 3 13 25 32 34 29 19 348 336 332 334 346 345 317 316 308 304 303 300
230 230 229 230 231 227 228 230 232 233 234 234 236 239 243 250 262 279 292 302 308 316 323 333 340 346 356 4 9 21 33 38 39 31 12 330 303 305 306 307 303 298 299 282 260
230 231 229 230 232 230 229 230 232 235 235 237 236 239 242 247 254 264 277 289 299 309 315 320 327 331 342 349 359 6 16 30 39 40 39 29 360 309 294 293 291 291 292 286 281
231 231 231 229 229 229 227 228 231 234 238 236 235 237 240 245 250 258 265 276 289 300 308 313 318 319 324 334 344 353 358 11 24 32 37 36 23 19 3 326 299 292 290 286 284
228 229 230 227 225 228 229 230 232 234 237 237 236 237 241 245 250 256 263 268 277 289 301 309 312 313 311 319 328 337 342 351 6 10 16 19 20 16 12 16 11 328 298 285 281